Weather at Samsun Çarşamba Airport

Public forecast

Using degrees Celsius for public forecast. Weather courtesy of forecast.io.

Current aviation weather report (METAR) for Samsun Çarşamba Airport

Retrieved 2020/10/31 06:50 UTC (12 minutes ago):

LTFH 310650Z 36005KT 320V040 9999 SCT036 BKN100 20/14 Q1014 NOSIG

Aviation forecast (TAF) for Samsun Çarşamba Airport

Forecast is more than 12 hours old.

Retrieved 2010/09/30 10:40 UTC (10 years ago):

TAF LTFH 301040Z 3012/0112 32012KT 9999 SCT036 BKN100 TEMPO 3013/3017 -SHRA BKN030 BKN090 PROB40 TEMPO 3018/3021 -TSRA FEW025CB BKN030